Location: Boiro
(42.6475°N, 8.8834°W)
Time: 02:50:26
(UTC+01:00)

Vanguard 1 Rocket - Pass Details

Date: 09 December 2021
Orbit: 651 x 4224 km, 34.3° (Epoch: 21 January)

Event Time Altitude Azimuth Distance (km) Brightness Sun altitude
Rises 08:22:33 0° 278° (W) 5,832 - -5.9°
Exits shadow 08:23:30 - 276° (W) 5,658 10.8 -5.8°
Reaches altitude 10° 08:26:04 10° 271° (W) 5,236 10.7 -5.3°
Maximum altitude 08:41:18 41° 208° (SSW) 4,558 11.0 -2.8°
Drops below altitude 10° 09:03:40 10° 149° (SSE) 7,422 13.3 0.7°
Sets 09:10:06 0° 143° (SE) 8,388 14.0 1.7°
